Starlink 34766

operational
NORAD ID: 66505 Int'l Des: 2025-263 Owner: SPXS Country: US Constellation: starlink
NOTLE

About Starlink 34766

Description loading...

Live Position

Loading 3D Globe...

Upcoming Passes

Altitude History

Altitude vs Time

uPlot chart will show altitude changes over time

Two-Line Element Set

1 66505U 25263W 26040.37912150 .00033535 00000-0 12230-2 0 9999
2 66505 42.9999 150.1914 0000949 273.1839 86.8904 15.27571046 14572
Epoch: Feb 9, 2026 • Age: 30 hours

Current Status

Altitude 484.4 km
Velocity 7.63 km/s
Sub-Earth Point 32.67°N, 92.89°W
Launch Date Nov 15, 2025
Age 0.2 years
Type internet

Technical Details

Classification Payload
Mass 575.00 kg
Dry Mass 530.00 kg
Total Mass 575.00 kg
Length 0.30 m
Diameter 4.10 m
Span 29.00 m
Shape Box + pan
Manufacturer SPXS
Bus Type Starlink V2MO
Phase Status In Orbit
Owner/State SPXS/US

Large Constellations

Loading constellations...